Le nostre stazioni meteo in Italia

Pubblicità
Il mio iltempo24.it
Kielder Castle, Gran Bretagna (99186): Temperatura & dewpoint: 22.03.2017 11:00:00 - 28.03.2017 11:00:00 (BST)Kielder Castle, Gran Bretagna (99186): Temperatura -20cm & Temperatura -100cm: 22.03.2017 11:00:00 - 28.03.2017 11:00:00 (BST)Kielder Castle, Gran Bretagna (99186): precipitazioni: 22.03.2017 11:00:00 - 28.03.2017 11:00:00 (BST)
Data & Tempo tt [°C] td [°C] tt -20cm [°C] tt -100cm [°C] rr [mm]
28.03.2017 11:00:00 - - - - -
28.03.2017 10:00:00 5,7 4,0 7,0 6,2 0,0
28.03.2017 09:00:00 5,3 3,7 - - 0,0
28.03.2017 08:00:00 5,0 3,7 - - 0,0
28.03.2017 07:00:00 5,0 3,9 - - 0,0
28.03.2017 06:00:00 4,9 3,7 - - 0,0
28.03.2017 05:00:00 4,9 3,7 - - 0,0
28.03.2017 04:00:00 5,0 3,8 - - 0,0
28.03.2017 03:00:00 5,0 3,7 - - 0,0
28.03.2017 02:00:00 5,2 3,7 - - 0,0
28.03.2017 01:00:00 5,7 4,1 - - 0,0
28.03.2017 00:00:00 5,9 4,4 - - 0,0
27.03.2017 23:00:00 5,9 4,4 - - 0,0
27.03.2017 22:00:00 6,1 4,5 - - 0,0
27.03.2017 21:00:00 6,1 4,2 - - 0,0
27.03.2017 20:00:00 6,2 3,8 - - 0,0
27.03.2017 19:00:00 7,4 4,2 - - 0,0
27.03.2017 18:00:00 9,5 4,8 - - 0,0
27.03.2017 17:00:00 11,4 5,5 - - 0,0
27.03.2017 16:00:00 12,7 5,4 - - 0,0
27.03.2017 15:00:00 13,1 3,1 - - 0,0
27.03.2017 14:00:00 12,7 2,1 - - 0,0
27.03.2017 13:00:00 13,1 2,8 - - 0,0
27.03.2017 12:00:00 12,6 0,0 - - 0,0
27.03.2017 11:00:00 9,8 4,5 - - 0,0
27.03.2017 10:00:00 6,7 4,8 6,5 6,2 0,0
27.03.2017 09:00:00 2,0 1,6 - - 0,2
27.03.2017 08:00:00 -0,8 -1,2 - - 0,0
27.03.2017 07:00:00 -0,1 -0,3 - - 0,0
27.03.2017 06:00:00 -0,9 -1,2 - - 0,0
27.03.2017 05:00:00 -0,7 -1,1 - - 0,0
27.03.2017 04:00:00 -0,7 -1,2 - - 0,0
27.03.2017 03:00:00 0,0 -0,6 - - 0,0
27.03.2017 02:00:00 1,1 0,6 - - 0,0
27.03.2017 01:00:00 0,9 0,2 - - 0,0
27.03.2017 00:00:00 1,6 0,7 - - 0,0
26.03.2017 23:00:00 2,4 1,4 - - 0,0
26.03.2017 22:00:00 3,8 2,2 - - 0,0
26.03.2017 21:00:00 5,7 2,8 - - 0,0
26.03.2017 20:00:00 7,7 3,3 - - 0,0
26.03.2017 19:00:00 9,7 3,7 - - 0,0
26.03.2017 18:00:00 11,1 3,6 - - 0,0
26.03.2017 17:00:00 13,1 4,4 - - 0,0
26.03.2017 16:00:00 13,5 3,5 - - 0,0
26.03.2017 15:00:00 13,6 1,6 - - 0,0
26.03.2017 14:00:00 13,3 0,3 - - 0,0
26.03.2017 13:00:00 13,4 -1,1 - - 0,0
26.03.2017 12:00:00 12,0 0,1 - - 0,0
26.03.2017 11:00:00 9,9 0,9 - - 0,0
26.03.2017 10:00:00 4,7 1,3 6,2 6,2 0,0
26.03.2017 09:00:00 1,2 0,2 - - 0,0
26.03.2017 08:00:00 -1,9 -2,2 - - 0,0
26.03.2017 07:00:00 -2,2 -2,7 - - 0,0
26.03.2017 06:00:00 -1,8 -2,3 - - 0,0
26.03.2017 05:00:00 -1,8 -2,3 - - 0,0
26.03.2017 04:00:00 -1,2 -1,7 - - 0,0
26.03.2017 03:00:00 -1,2 -1,9 - - 0,0
26.03.2017 02:00:00 -0,5 -1,3 - - 0,0
26.03.2017 01:00:00 0,2 -1,2 - - 0,0
26.03.2017 00:00:00 1,2 -0,4 - - 0,0
25.03.2017 23:00:00 1,8 0,1 - - 0,0
25.03.2017 22:00:00 3,5 0,3 - - 0,0
25.03.2017 21:00:00 4,9 1,1 - - 0,0
25.03.2017 20:00:00 6,8 1,8 - - 0,0
25.03.2017 19:00:00 11,4 4,2 - - 0,0
25.03.2017 18:00:00 15,0 0,7 - - 0,0
25.03.2017 17:00:00 16,7 0,4 - - 0,0
25.03.2017 16:00:00 16,1 -0,1 - - 0,0
25.03.2017 15:00:00 16,1 -1,1 - - 0,0
25.03.2017 14:00:00 15,6 -1,3 - - 0,0
25.03.2017 13:00:00 15,2 0,4 - - 0,0
25.03.2017 12:00:00 12,4 0,6 - - 0,0
25.03.2017 11:00:00 9,6 1,2 - - 0,0
25.03.2017 10:00:00 6,1 4,3 6,0 6,4 0,0
25.03.2017 09:00:00 0,6 0,3 - - 0,0
25.03.2017 08:00:00 -2,2 -2,5 - - 0,0
25.03.2017 07:00:00 -2,5 -2,9 - - 0,0
25.03.2017 06:00:00 -2,4 -2,7 - - 0,0
25.03.2017 05:00:00 -2,1 -2,5 - - 0,0
25.03.2017 04:00:00 -1,9 -2,2 - - 0,0
25.03.2017 03:00:00 -1,5 -1,9 - - 0,0
25.03.2017 02:00:00 -1,3 -1,8 - - 0,0
25.03.2017 01:00:00 -0,4 -1,0 - - 0,0
25.03.2017 00:00:00 0,1 -0,6 - - 0,0
24.03.2017 23:00:00 0,4 -0,4 - - 0,0
24.03.2017 22:00:00 1,2 0,2 - - 0,0
24.03.2017 21:00:00 3,2 1,7 - - 0,0
24.03.2017 20:00:00 4,7 2,6 - - 0,0
24.03.2017 19:00:00 7,3 4,4 - - 0,0
24.03.2017 18:00:00 10,2 1,2 - - 0,0
24.03.2017 17:00:00 11,5 2,5 - - 0,0
24.03.2017 16:00:00 11,6 2,6 - - 0,0
24.03.2017 15:00:00 11,2 2,7 - - 0,0
24.03.2017 14:00:00 10,2 2,7 - - 0,0
24.03.2017 13:00:00 8,7 2,5 - - 0,0
24.03.2017 12:00:00 8,1 1,7 - - 0,0
24.03.2017 11:00:00 6,8 2,1 - - 0,0
24.03.2017 10:00:00 4,3 2,5 5,7 6,5 0,0
24.03.2017 09:00:00 1,6 1,2 - - 0,2
24.03.2017 08:00:00 0,1 -0,1 - - 0,0
24.03.2017 07:00:00 -0,4 -0,6 - - 0,0
24.03.2017 06:00:00 0,0 -0,2 - - 0,0
24.03.2017 05:00:00 -0,1 -0,3 - - 0,0
24.03.2017 04:00:00 -1,3 -1,6 - - 0,0
24.03.2017 03:00:00 -1,1 -1,3 - - 0,0
24.03.2017 02:00:00 -0,4 -0,6 - - 0,0
24.03.2017 01:00:00 -0,6 -0,9 - - 0,0
24.03.2017 00:00:00 -0,5 -0,7 - - 0,0
23.03.2017 23:00:00 -0,9 -1,3 - - 0,0
23.03.2017 22:00:00 -0,1 -0,9 - - 0,0
23.03.2017 21:00:00 1,5 0,7 - - 0,0
23.03.2017 20:00:00 2,7 1,5 - - 0,0
23.03.2017 19:00:00 4,5 1,6 - - 0,0
23.03.2017 18:00:00 5,6 1,5 - - 0,0
23.03.2017 17:00:00 6,0 2,0 - - 0,0
23.03.2017 16:00:00 6,3 2,7 - - 0,0
23.03.2017 15:00:00 5,9 2,9 - - 0,0
23.03.2017 14:00:00 6,2 3,4 - - 0,0
23.03.2017 13:00:00 5,3 3,1 - - 0,0
23.03.2017 12:00:00 5,5 3,3 - - 0,0
23.03.2017 11:00:00 5,2 3,6 - - 0,0
23.03.2017 10:00:00 4,2 3,0 5,7 6,7 0,2
23.03.2017 09:00:00 3,7 2,6 - - 0,8
23.03.2017 08:00:00 3,3 2,3 - - 0,2
23.03.2017 07:00:00 3,3 2,3 - - 0,4
23.03.2017 06:00:00 3,0 2,2 - - 2,0
23.03.2017 05:00:00 1,9 1,2 - - 0,4
23.03.2017 04:00:00 1,9 1,1 - - 0,4
23.03.2017 03:00:00 1,7 0,9 - - 0,2
23.03.2017 02:00:00 1,9 1,1 - - 0,6
23.03.2017 01:00:00 1,3 0,3 - - 2,0
23.03.2017 00:00:00 2,9 2,0 - - 1,8
22.03.2017 23:00:00 2,8 1,7 - - 1,8
22.03.2017 22:00:00 3,2 2,3 - - 4,8
22.03.2017 21:00:00 4,0 3,0 - - 2,2
22.03.2017 20:00:00 4,3 3,2 - - 0,2
22.03.2017 19:00:00 4,5 3,6 - - 1,6
22.03.2017 18:00:00 4,1 2,9 - - 0,6
22.03.2017 17:00:00 4,3 3,4 - - 0,4
22.03.2017 16:00:00 3,4 2,3 - - 0,8
22.03.2017 15:00:00 3,8 2,7 - - 0,6
22.03.2017 14:00:00 3,2 2,2 - - 0,6
22.03.2017 13:00:00 2,3 1,3 - - 1,0
22.03.2017 12:00:00 2,3 1,4 - - 2,0
22.03.2017 11:00:00 - - - - -

tt = Temperatura
td = dewpoint
tt -20cm = Temperatura -20cm
tt -100cm = Temperatura -100cm
rr = precipitazioni

Stazioni seguenti

WeatherPro
AMSI
MeteoEarth